owner,sensor,date,latitude,longitude,vertical_datum,wind_speed,wind_to_direction,wind_speed_of_gust,qcFlag 
LUMCON,ioos:station:LUMCON:105:1,2006-01-01T02:00:00Z,29.1874,-90.6654,1.0,22.1,330.0,99.0,'11111222,11111222,11144222' 
LUMCON,ioos:station:LUMCON:105:1,2006-01-01T03:00:00Z,29.1874,-90.6654,1.0,22.7,330.0,99.0,'11111222,11111222,11144222' 
LUMCON,ioos:station:LUMCON:105:1,2006-01-01T04:00:00Z,29.1874,-90.6654,1.0,23.2,330.0,99.0,'11111222,11111222,11144222' 
LUMCON,ioos:station:LUMCON:105:1,2006-01-01T05:00:00Z,29.1874,-90.6654,1.0,23.2,330.0,99.0,'11111222,11111222,11144222' 
LUMCON,ioos:station:LUMCON:105:1,2006-01-01T06:00:00Z,29.1874,-90.6654,1.0,22.7,330.0,99.0,'11111222,11111222,11144222' 
LUMCON,ioos:station:LUMCON:105:1,2006-01-01T07:00:00Z,29.1874,-90.6654,1.0,23.2,330.0,99.0,'11111222,11111222,11144222' 
LUMCON,ioos:station:LUMCON:105:1,2006-01-01T08:00:00Z,29.1874,-90.6654,1.0,99.0,90.0,2.6,'11144222,11111222,11111222' 
LUMCON,ioos:station:LUMCON:105:1,2006-01-01T09:00:00Z,29.1874,-90.6654,1.0,99.0,90.0,2.1,'11144222,11111222,11111222' 
LUMCON,ioos:station:LUMCON:105:1,2006-01-01T10:00:00Z,29.1874,-90.6654,1.0,99.0,100.0,2.6,'11144222,11111222,11111222' 
LUMCON,ioos:station:LUMCON:105:1,2006-01-01T11:00:00Z,29.1874,-90.6654,1.0,99.0,180.0,2.1,'11144222,11111222,11111222' 
LUMCON,ioos:station:LUMCON:105:1,2006-01-01T12:00:00Z,29.1874,-90.6654,1.0,99.0,40.0,2.6,'11144222,11111222,11111222' 
LUMCON,ioos:station:LUMCON:105:1,2006-01-01T13:00:00Z,29.1874,-90.6654,1.0,99.0,310.0,99.0,'11144222,11111222,11144222' 
LUMCON,ioos:station:LUMCON:105:1,2006-01-01T14:00:00Z,29.1874,-90.6654,1.0,99.0,190.0,5.7,'11144222,11111222,11111222' 
LUMCON,ioos:station:LUMCON:105:1,2006-01-01T15:00:00Z,29.1874,-90.6654,1.0,99.0,170.0,5.7,'11144222,11111222,11111222' 
LUMCON,ioos:station:LUMCON:105:1,2006-01-01T16:00:00Z,29.1874,-90.6654,1.0,99.0,170.0,5.7,'11144222,11111222,11111222' 
LUMCON,ioos:station:LUMCON:105:1,2006-01-01T17:00:00Z,29.1874,-90.6654,1.0,99.0,160.0,5.7,'11144222,11111222,11111222' 
LUMCON,ioos:station:LUMCON:105:1,2006-01-01T18:00:00Z,29.1874,-90.6654,1.0,99.0,160.0,6.2,'11144222,11111222,11111222' 
LUMCON,ioos:station:LUMCON:105:1,2006-01-01T19:00:00Z,29.1874,-90.6654,1.0,99.0,160.0,6.7,'11144222,11111222,11111222' 
LUMCON,ioos:station:LUMCON:105:1,2006-01-01T20:00:00Z,29.1874,-90.6654,1.0,99.0,190.0,5.7,'11144222,11111222,11111222' 
LUMCON,ioos:station:LUMCON:105:1,2006-01-01T21:00:00Z,29.1874,-90.6654,1.0,99.0,180.0,6.7,'11144222,11111222,11111222' 
LUMCON,ioos:station:LUMCON:105:1,2006-01-01T22:00:00Z,29.1874,-90.6654,1.0,99.0,190.0,6.2,'11144222,11111222,11111222' 
LUMCON,ioos:station:LUMCON:105:1,2006-01-01T23:00:00Z,29.1874,-90.6654,1.0,99.0,190.0,4.6,'11144222,11111222,11111222' 
LUMCON,ioos:station:LUMCON:105:1,2006-01-02T00:00:00Z,29.1874,-90.6654,1.0,99.0,190.0,6.2,'11144222,11111222,11111222' 
LUMCON,ioos:station:LUMCON:105:1,2006-01-02T01:00:00Z,29.1874,-90.6654,1.0,99.0,190.0,7.2,'11144222,11111222,11111222' 
LUMCON,ioos:station:LUMCON:105:1,2006-01-02T02:00:00Z,29.1874,-90.6654,1.0,99.0,190.0,9.3,'11144222,11111222,11111222' 
LUMCON,ioos:station:LUMCON:105:1,2006-01-02T03:00:00Z,29.1874,-90.6654,1.0,99.0,200.0,7.2,'11144222,11111222,11111222' 
LUMCON,ioos:station:LUMCON:105:1,2006-01-02T04:00:00Z,29.1874,-90.6654,1.0,99.0,190.0,7.7,'11144222,11111222,11111222' 
LUMCON,ioos:station:LUMCON:105:1,2006-01-02T05:00:00Z,29.1874,-90.6654,1.0,99.0,190.0,9.3,'11144222,11111222,11111222' 
LUMCON,ioos:station:LUMCON:105:1,2006-01-02T06:00:00Z,29.1874,-90.6654,1.0,99.0,210.0,7.2,'11144222,11111222,11111222' 
LUMCON,ioos:station:LUMCON:105:1,2006-01-02T07:00:00Z,29.1874,-90.6654,1.0,99.0,210.0,8.2,'11144222,11111222,11111222' 
LUMCON,ioos:station:LUMCON:105:1,2006-01-02T08:00:00Z,29.1874,-90.6654,1.0,99.0,210.0,6.2,'11144222,11111222,11111222' 
LUMCON,ioos:station:LUMCON:105:1,2006-01-02T09:00:00Z,29.1874,-90.6654,1.0,99.0,220.0,7.2,'11144222,11111222,11111222' 
LUMCON,ioos:station:LUMCON:105:1,2006-01-02T10:00:00Z,29.1874,-90.6654,1.0,99.0,230.0,6.2,'11144222,11111222,11111222' 
LUMCON,ioos:station:LUMCON:105:1,2006-01-02T11:00:00Z,29.1874,-90.6654,1.0,99.0,230.0,8.8,'11144222,11111222,11111222' 
LUMCON,ioos:station:LUMCON:105:1,2006-01-02T12:00:00Z,29.1874,-90.6654,1.0,99.0,230.0,7.2,'11144222,11111222,11111222' 
LUMCON,ioos:station:LUMCON:105:1,2006-01-02T13:00:00Z,29.1874,-90.6654,1.0,99.0,240.0,7.2,'11144222,11111222,11111222' 
LUMCON,ioos:station:LUMCON:105:1,2006-01-02T14:00:00Z,29.1874,-90.6654,1.0,99.0,230.0,8.2,'11144222,11111222,11111222' 
LUMCON,ioos:station:LUMCON:105:1,2006-01-02T15:00:00Z,29.1874,-90.6654,1.0,99.0,240.0,7.7,'11144222,11111222,11111222' 
LUMCON,ioos:station:LUMCON:105:1,2006-01-02T16:00:00Z,29.1874,-90.6654,1.0,7.2,250.0,9.3,'11111222,11111222,11111222' 
LUMCON,ioos:station:LUMCON:105:1,2006-01-02T17:00:00Z,29.1874,-90.6654,1.0,7.2,260.0,9.3,'11111222,11111222,11111222' 
LUMCON,ioos:station:LUMCON:105:1,2006-01-02T18:00:00Z,29.1874,-90.6654,1.0,7.2,270.0,9.8,'11111222,11111222,11111222' 
LUMCON,ioos:station:LUMCON:105:1,2006-01-02T19:00:00Z,29.1874,-90.6654,1.0,8.2,270.0,9.8,'11111222,11111222,11111222' 
LUMCON,ioos:station:LUMCON:105:1,2006-01-02T20:00:00Z,29.1874,-90.6654,1.0,8.2,270.0,9.8,'11111222,11111222,11111222' 
LUMCON,ioos:station:LUMCON:105:1,2006-01-02T21:00:00Z,29.1874,-90.6654,1.0,6.2,280.0,9.3,'11111222,11111222,11111222' 
LUMCON,ioos:station:LUMCON:105:1,2006-01-02T22:00:00Z,29.1874,-90.6654,1.0,5.7,270.0,7.7,'11111222,11111222,11111222' 
LUMCON,ioos:station:LUMCON:105:1,2006-01-02T23:00:00Z,29.1874,-90.6654,1.0,4.6,270.0,7.2,'11111222,11111222,11111222' 
LUMCON,ioos:station:LUMCON:105:1,2006-01-03T00:00:00Z,29.1874,-90.6654,1.0,4.6,270.0,7.2,'11111222,11111222,11111222' 
LUMCON,ioos:station:LUMCON:105:1,2006-01-03T01:00:00Z,29.1874,-90.6654,1.0,5.1,270.0,7.2,'11111222,11111222,11111222' 
LUMCON,ioos:station:LUMCON:105:1,2006-01-03T02:00:00Z,29.1874,-90.6654,1.0,4.6,280.0,7.2,'11111222,11111222,11111222' 
LUMCON,ioos:station:LUMCON:105:1,2006-01-03T03:00:00Z,29.1874,-90.6654,1.0,3.6,280.0,6.2,'11111222,11111222,11111222' 
LUMCON,ioos:station:LUMCON:105:1,2006-01-03T04:00:00Z,29.1874,-90.6654,1.0,3.6,270.0,5.1,'11111222,11111222,11111222' 
LUMCON,ioos:station:LUMCON:105:1,2006-01-03T05:00:00Z,29.1874,-90.6654,1.0,3.6,280.0,5.7,'11111222,11111222,11111222' 
LUMCON,ioos:station:LUMCON:105:1,2006-01-03T06:00:00Z,29.1874,-90.6654,1.0,2.6,290.0,4.1,'11111222,11111222,11111222' 
LUMCON,ioos:station:LUMCON:105:1,2006-01-03T07:00:00Z,29.1874,-90.6654,1.0,3.1,290.0,4.6,'11111222,11111222,11111222' 
LUMCON,ioos:station:LUMCON:105:1,2006-01-03T08:00:00Z,29.1874,-90.6654,1.0,3.1,300.0,4.1,'11111222,11111222,11111222' 
LUMCON,ioos:station:LUMCON:105:1,2006-01-03T09:00:00Z,29.1874,-90.6654,1.0,3.1,320.0,4.1,'11111222,11111222,11111222' 
LUMCON,ioos:station:LUMCON:105:1,2006-01-03T10:00:00Z,29.1874,-90.6654,1.0,3.1,320.0,4.1,'11111222,11111222,11111222' 
LUMCON,ioos:station:LUMCON:105:1,2006-01-03T11:00:00Z,29.1874,-90.6654,1.0,3.1,350.0,4.1,'11111222,11111222,11111222' 
LUMCON,ioos:station:LUMCON:105:1,2006-01-03T12:00:00Z,29.1874,-90.6654,1.0,3.1,350.0,4.6,'11111222,11111222,11111222' 
LUMCON,ioos:station:LUMCON:105:1,2006-01-03T13:00:00Z,29.1874,-90.6654,1.0,2.6,340.0,4.1,'11111222,11111222,11111222' 
LUMCON,ioos:station:LUMCON:105:1,2006-01-03T14:00:00Z,29.1874,-90.6654,1.0,2.6,360.0,3.6,'11111222,11144222,11111222' 
LUMCON,ioos:station:LUMCON:105:1,2006-01-03T15:00:00Z,29.1874,-90.6654,1.0,2.6,20.0,3.6,'11111222,11111222,11111222' 
LUMCON,ioos:station:LUMCON:105:1,2006-01-03T16:00:00Z,29.1874,-90.6654,1.0,3.6,40.0,4.6,'11111222,11111222,11111222' 
LUMCON,ioos:station:LUMCON:105:1,2006-01-03T17:00:00Z,29.1874,-90.6654,1.0,3.6,60.0,5.1,'11111222,11111222,11111222' 
LUMCON,ioos:station:LUMCON:105:1,2006-01-03T18:00:00Z,29.1874,-90.6654,1.0,1.5,60.0,3.1,'11111222,11111222,11111222' 
LUMCON,ioos:station:LUMCON:105:1,2006-01-03T19:00:00Z,29.1874,-90.6654,1.0,2.1,70.0,3.1,'11111222,11111222,11111222' 
LUMCON,ioos:station:LUMCON:105:1,2006-01-03T20:00:00Z,29.1874,-90.6654,1.0,2.6,160.0,3.6,'11111222,11111222,11111222' 
LUMCON,ioos:station:LUMCON:105:1,2006-01-03T21:00:00Z,29.1874,-90.6654,1.0,3.6,190.0,4.6,'11111222,11111222,11111222' 
LUMCON,ioos:station:LUMCON:105:1,2006-01-03T23:00:00Z,29.1874,-90.6654,1.0,3.6,230.0,5.1,'11111222,11111222,11111222' 
LUMCON,ioos:station:LUMCON:105:1,2006-01-04T00:00:00Z,29.1874,-90.6654,1.0,2.1,220.0,3.1,'11111222,11111222,11111222' 
LUMCON,ioos:station:LUMCON:105:1,2006-01-04T01:00:00Z,29.1874,-90.6654,1.0,2.6,230.0,3.1,'11111222,11111222,11111222' 
LUMCON,ioos:station:LUMCON:105:1,2006-01-04T02:00:00Z,29.1874,-90.6654,1.0,2.6,240.0,3.6,'11111222,11111222,11111222' 
LUMCON,ioos:station:LUMCON:105:1,2006-01-04T03:00:00Z,29.1874,-90.6654,1.0,3.1,230.0,4.1,'11111222,11111222,11111222' 
LUMCON,ioos:station:LUMCON:105:1,2006-01-04T04:00:00Z,29.1874,-90.6654,1.0,1.5,240.0,2.1,'11111222,11111222,11111222' 
LUMCON,ioos:station:LUMCON:105:1,2006-01-04T05:00:00Z,29.1874,-90.6654,1.0,2.6,190.0,4.1,'11111222,11111222,11111222' 
LUMCON,ioos:station:LUMCON:105:1,2006-01-04T06:00:00Z,29.1874,-90.6654,1.0,3.6,210.0,5.1,'11111222,11111222,11111222' 
LUMCON,ioos:station:LUMCON:105:1,2006-01-04T07:00:00Z,29.1874,-90.6654,1.0,2.6,220.0,4.1,'11111222,11111222,11111222' 
LUMCON,ioos:station:LUMCON:105:1,2006-01-04T08:00:00Z,29.1874,-90.6654,1.0,2.1,270.0,2.6,'11111222,11111222,11111222' 
LUMCON,ioos:station:LUMCON:105:1,2006-01-04T09:00:00Z,29.1874,-90.6654,1.0,2.1,290.0,3.1,'11111222,11111222,11111222' 
LUMCON,ioos:station:LUMCON:105:1,2006-01-04T10:00:00Z,29.1874,-90.6654,1.0,1.0,320.0,1.5,'11111222,11111222,11111222' 
LUMCON,ioos:station:LUMCON:105:1,2006-01-04T11:00:00Z,29.1874,-90.6654,1.0,0.0,330.0,0.5,'11111222,11111222,11111222' 
LUMCON,ioos:station:LUMCON:105:1,2006-01-04T12:00:00Z,29.1874,-90.6654,1.0,0.5,70.0,1.0,'11111222,11111222,11111222' 
LUMCON,ioos:station:LUMCON:105:1,2006-01-04T13:00:00Z,29.1874,-90.6654,1.0,1.0,180.0,1.5,'11111222,11111222,11111222' 
LUMCON,ioos:station:LUMCON:105:1,2006-01-04T14:00:00Z,29.1874,-90.6654,1.0,0.5,160.0,0.5,'11111222,11111222,11111222' 
LUMCON,ioos:station:LUMCON:105:1,2006-01-04T15:00:00Z,29.1874,-90.6654,1.0,0.0,140.0,0.5,'11111222,11111222,11111222' 
LUMCON,ioos:station:LUMCON:105:1,2006-01-04T16:00:00Z,29.1874,-90.6654,1.0,0.0,60.0,1.0,'11111222,11111222,11111222' 
LUMCON,ioos:station:LUMCON:105:1,2006-01-04T17:00:00Z,29.1874,-90.6654,1.0,2.1,150.0,3.1,'11111222,11111222,11111222' 
LUMCON,ioos:station:LUMCON:105:1,2006-01-04T18:00:00Z,29.1874,-90.6654,1.0,2.1,200.0,5.1,'11111222,11111222,11111222' 
LUMCON,ioos:station:LUMCON:105:1,2006-01-04T19:00:00Z,29.1874,-90.6654,1.0,4.6,220.0,6.2,'11111222,11111222,11111222' 
LUMCON,ioos:station:LUMCON:105:1,2006-01-04T20:00:00Z,29.1874,-90.6654,1.0,4.6,240.0,6.2,'11111222,11111222,11111222' 
LUMCON,ioos:station:LUMCON:105:1,2006-01-04T21:00:00Z,29.1874,-90.6654,1.0,5.1,240.0,6.7,'11111222,11111222,11111222' 
LUMCON,ioos:station:LUMCON:105:1,2006-01-04T22:00:00Z,29.1874,-90.6654,1.0,4.1,240.0,5.1,'11111222,11111222,11111222' 
LUMCON,ioos:station:LUMCON:105:1,2006-01-04T23:00:00Z,29.1874,-90.6654,1.0,3.6,260.0,5.1,'11111222,11111222,11111222' 
LUMCON,ioos:station:LUMCON:105:1,2006-01-05T00:00:00Z,29.1874,-90.6654,1.0,2.6,270.0,3.6,'11111222,11111222,11111222' 
LUMCON,ioos:station:LUMCON:105:1,2006-01-05T01:00:00Z,29.1874,-90.6654,1.0,3.6,230.0,5.1,'11111222,11111222,11111222' 
LUMCON,ioos:station:LUMCON:105:1,2006-01-05T02:00:00Z,29.1874,-90.6654,1.0,3.6,250.0,5.7,'11111222,11111222,11111222' 
LUMCON,ioos:station:LUMCON:105:1,2006-01-05T03:00:00Z,29.1874,-90.6654,1.0,3.6,250.0,5.7,'11111222,11111222,11111222' 
LUMCON,ioos:station:LUMCON:105:1,2006-01-05T04:00:00Z,29.1874,-90.6654,1.0,5.1,260.0,6.7,'11111222,11111222,11111222' 
LUMCON,ioos:station:LUMCON:105:1,2006-01-05T05:00:00Z,29.1874,-90.6654,1.0,3.6,250.0,5.1,'11111222,11111222,11111222' 
LUMCON,ioos:station:LUMCON:105:1,2006-01-05T06:00:00Z,29.1874,-90.6654,1.0,4.1,270.0,6.2,'11111222,11111222,11111222' 
LUMCON,ioos:station:LUMCON:105:1,2006-01-05T07:00:00Z,29.1874,-90.6654,1.0,4.1,290.0,5.7,'11111222,11111222,11111222' 
LUMCON,ioos:station:LUMCON:105:1,2006-01-05T08:00:00Z,29.1874,-90.6654,1.0,4.6,290.0,7.2,'11111222,11111222,11111222' 
LUMCON,ioos:station:LUMCON:105:1,2006-01-05T09:00:00Z,29.1874,-90.6654,1.0,5.1,310.0,7.7,'11111222,11111222,11111222' 
LUMCON,ioos:station:LUMCON:105:1,2006-01-05T10:00:00Z,29.1874,-90.6654,1.0,4.1,320.0,5.7,'11111222,11111222,11111222' 
LUMCON,ioos:station:LUMCON:105:1,2006-01-05T11:00:00Z,29.1874,-90.6654,1.0,4.1,320.0,5.7,'11111222,11111222,11111222' 
LUMCON,ioos:station:LUMCON:105:1,2006-01-05T12:00:00Z,29.1874,-90.6654,1.0,3.6,320.0,4.6,'11111222,11111222,11111222' 
LUMCON,ioos:station:LUMCON:105:1,2006-01-05T13:00:00Z,29.1874,-90.6654,1.0,5.7,360.0,8.2,'11111222,11144222,11111222' 
LUMCON,ioos:station:LUMCON:105:1,2006-01-05T14:00:00Z,29.1874,-90.6654,1.0,6.7,350.0,8.8,'11111222,11111222,11111222' 
LUMCON,ioos:station:LUMCON:105:1,2006-01-05T15:00:00Z,29.1874,-90.6654,1.0,8.2,340.0,9.8,'11111222,11111222,11111222' 
LUMCON,ioos:station:LUMCON:105:1,2006-01-05T16:00:00Z,29.1874,-90.6654,1.0,7.2,350.0,8.8,'11111222,11111222,11111222' 
LUMCON,ioos:station:LUMCON:105:1,2006-01-05T17:00:00Z,29.1874,-90.6654,1.0,6.7,340.0,9.3,'11111222,11111222,11111222' 
LUMCON,ioos:station:LUMCON:105:1,2006-01-05T18:00:00Z,29.1874,-90.6654,1.0,6.7,340.0,8.8,'11111222,11111222,11111222' 
LUMCON,ioos:station:LUMCON:105:1,2006-01-05T19:00:00Z,29.1874,-90.6654,1.0,8.2,340.0,9.8,'11111222,11111222,11111222' 
LUMCON,ioos:station:LUMCON:105:1,2006-01-05T20:00:00Z,29.1874,-90.6654,1.0,9.8,320.0,9.8,'11111222,11111222,11111222' 
LUMCON,ioos:station:LUMCON:105:1,2006-01-05T21:00:00Z,29.1874,-90.6654,1.0,9.3,340.0,9.8,'11111222,11111222,11111222' 
LUMCON,ioos:station:LUMCON:105:1,2006-01-05T22:00:00Z,29.1874,-90.6654,1.0,7.7,340.0,9.8,'11111222,11111222,11111222' 
LUMCON,ioos:station:LUMCON:105:1,2006-01-05T23:00:00Z,29.1874,-90.6654,1.0,9.3,330.0,9.8,'11111222,11111222,11111222' 
LUMCON,ioos:station:LUMCON:105:1,2006-01-06T00:00:00Z,29.1874,-90.6654,1.0,5.7,340.0,9.3,'11111222,11111222,11111222' 
LUMCON,ioos:station:LUMCON:105:1,2006-01-06T01:00:00Z,29.1874,-90.6654,1.0,4.6,330.0,6.7,'11111222,11111222,11111222' 
LUMCON,ioos:station:LUMCON:105:1,2006-01-06T02:00:00Z,29.1874,-90.6654,1.0,4.1,300.0,5.7,'11111222,11111222,11111222' 
LUMCON,ioos:station:LUMCON:105:1,2006-01-06T03:00:00Z,29.1874,-90.6654,1.0,6.2,310.0,9.3,'11111222,11111222,11111222' 
LUMCON,ioos:station:LUMCON:105:1,2006-01-06T04:00:00Z,29.1874,-90.6654,1.0,6.2,320.0,8.8,'11111222,11111222,11111222' 
LUMCON,ioos:station:LUMCON:105:1,2006-01-06T05:00:00Z,29.1874,-90.6654,1.0,5.1,320.0,7.7,'11111222,11111222,11111222' 
LUMCON,ioos:station:LUMCON:105:1,2006-01-06T15:00:00Z,29.1874,-90.6654,1.0,7.2,340.0,9.8,'11111222,11111222,11111222' 
LUMCON,ioos:station:LUMCON:105:1,2006-01-06T17:00:00Z,29.1874,-90.6654,1.0,8.2,340.0,9.8,'11111222,11111222,11111222' 
LUMCON,ioos:station:LUMCON:105:1,2006-01-06T18:00:00Z,29.1874,-90.6654,1.0,8.8,320.0,9.8,'11111222,11111222,11111222' 
LUMCON,ioos:station:LUMCON:105:1,2006-01-06T19:00:00Z,29.1874,-90.6654,1.0,8.8,350.0,9.8,'11111222,11111222,11111222' 
LUMCON,ioos:station:LUMCON:105:1,2006-01-06T20:00:00Z,29.1874,-90.6654,1.0,8.2,350.0,9.3,'11111222,11111222,11111222' 
LUMCON,ioos:station:LUMCON:105:1,2006-01-06T21:00:00Z,29.1874,-90.6654,1.0,9.3,350.0,11.3,'11111222,11111222,11111222' 
LUMCON,ioos:station:LUMCON:105:1,2006-01-06T22:00:00Z,29.1874,-90.6654,1.0,8.8,320.0,9.3,'11111222,11111222,11111222' 
LUMCON,ioos:station:LUMCON:105:1,2006-01-06T23:00:00Z,29.1874,-90.6654,1.0,7.7,0.0,8.8,'11111222,11111222,11111222' 
LUMCON,ioos:station:LUMCON:105:1,2006-01-07T17:00:00Z,29.1874,-90.6654,1.0,2.6,180.0,3.6,'11111222,11111222,11111222' 
LUMCON,ioos:station:LUMCON:105:1,2006-01-07T18:00:00Z,29.1874,-90.6654,1.0,4.6,210.0,6.2,'11111222,11111222,11111222' 
LUMCON,ioos:station:LUMCON:105:1,2006-01-07T19:00:00Z,29.1874,-90.6654,1.0,4.6,220.0,6.2,'11111222,11111222,11111222' 
LUMCON,ioos:station:LUMCON:105:1,2006-01-07T20:00:00Z,29.1874,-90.6654,1.0,5.7,220.0,6.7,'11111222,11111222,11111222' 
LUMCON,ioos:station:LUMCON:105:1,2006-01-07T21:00:00Z,29.1874,-90.6654,1.0,5.1,230.0,6.7,'11111222,11111222,11111222' 
LUMCON,ioos:station:LUMCON:105:1,2006-01-07T22:00:00Z,29.1874,-90.6654,1.0,5.1,240.0,6.2,'11111222,11111222,11111222' 
LUMCON,ioos:station:LUMCON:105:1,2006-01-07T23:00:00Z,29.1874,-90.6654,1.0,4.1,240.0,5.7,'11111222,11111222,11111222' 
LUMCON,ioos:station:LUMCON:105:1,2006-01-08T00:00:00Z,29.1874,-90.6654,1.0,2.6,230.0,3.1,'11111222,11111222,11111222' 
LUMCON,ioos:station:LUMCON:105:1,2006-01-08T01:00:00Z,29.1874,-90.6654,1.0,2.1,240.0,2.6,'11111222,11111222,11111222' 
LUMCON,ioos:station:LUMCON:105:1,2006-01-08T02:00:00Z,29.1874,-90.6654,1.0,2.6,210.0,3.1,'11111222,11111222,11111222' 
LUMCON,ioos:station:LUMCON:105:1,2006-01-08T03:00:00Z,29.1874,-90.6654,1.0,2.6,220.0,3.1,'11111222,11111222,11111222' 
LUMCON,ioos:station:LUMCON:105:1,2006-01-08T04:00:00Z,29.1874,-90.6654,1.0,3.6,220.0,4.1,'11111222,11111222,11111222' 
LUMCON,ioos:station:LUMCON:105:1,2006-01-08T05:00:00Z,29.1874,-90.6654,1.0,4.6,220.0,5.1,'11111222,11111222,11111222' 
LUMCON,ioos:station:LUMCON:105:1,2006-01-08T06:00:00Z,29.1874,-90.6654,1.0,5.7,230.0,6.2,'11111222,11111222,11111222' 
LUMCON,ioos:station:LUMCON:105:1,2006-01-08T07:00:00Z,29.1874,-90.6654,1.0,5.1,220.0,5.7,'11111222,11111222,11111222' 
LUMCON,ioos:station:LUMCON:105:1,2006-01-08T08:00:00Z,29.1874,-90.6654,1.0,4.6,230.0,5.1,'11111222,11111222,11111222' 
LUMCON,ioos:station:LUMCON:105:1,2006-01-08T09:00:00Z,29.1874,-90.6654,1.0,4.1,220.0,4.6,'11111222,11111222,11111222' 
LUMCON,ioos:station:LUMCON:105:1,2006-01-08T10:00:00Z,29.1874,-90.6654,1.0,3.6,220.0,4.1,'11111222,11111222,11111222' 
LUMCON,ioos:station:LUMCON:105:1,2006-01-08T11:00:00Z,29.1874,-90.6654,1.0,3.1,220.0,3.6,'11111222,11111222,11111222' 
LUMCON,ioos:station:LUMCON:105:1,2006-01-08T12:00:00Z,29.1874,-90.6654,1.0,3.6,220.0,4.1,'11111222,11111222,11111222' 
LUMCON,ioos:station:LUMCON:105:1,2006-01-08T13:00:00Z,29.1874,-90.6654,1.0,3.6,220.0,4.1,'11111222,11111222,11111222' 
LUMCON,ioos:station:LUMCON:105:1,2006-01-08T14:00:00Z,29.1874,-90.6654,1.0,4.1,210.0,4.6,'11111222,11111222,11111222' 
LUMCON,ioos:station:LUMCON:105:1,2006-01-08T15:00:00Z,29.1874,-90.6654,1.0,5.7,210.0,6.2,'11111222,11111222,11111222' 
LUMCON,ioos:station:LUMCON:105:1,2006-01-08T16:00:00Z,29.1874,-90.6654,1.0,6.2,200.0,6.7,'11111222,11111222,11111222' 
LUMCON,ioos:station:LUMCON:105:1,2006-01-08T17:00:00Z,29.1874,-90.6654,1.0,5.7,200.0,6.7,'11111222,11111222,11111222' 
LUMCON,ioos:station:LUMCON:105:1,2006-01-08T18:00:00Z,29.1874,-90.6654,1.0,5.7,210.0,6.7,'11111222,11111222,11111222' 
LUMCON,ioos:station:LUMCON:105:1,2006-01-08T19:00:00Z,29.1874,-90.6654,1.0,6.2,210.0,7.2,'11111222,11111222,11111222' 
LUMCON,ioos:station:LUMCON:105:1,2006-01-08T20:00:00Z,29.1874,-90.6654,1.0,5.1,220.0,6.2,'11111222,11111222,11111222' 
LUMCON,ioos:station:LUMCON:105:1,2006-01-08T21:00:00Z,29.1874,-90.6654,1.0,5.1,220.0,6.2,'11111222,11111222,11111222' 
LUMCON,ioos:station:LUMCON:105:1,2006-01-08T22:00:00Z,29.1874,-90.6654,1.0,4.6,220.0,5.7,'11111222,11111222,11111222' 
LUMCON,ioos:station:LUMCON:105:1,2006-01-08T23:00:00Z,29.1874,-90.6654,1.0,3.6,210.0,4.1,'11111222,11111222,11111222' 
LUMCON,ioos:station:LUMCON:105:1,2006-01-09T00:00:00Z,29.1874,-90.6654,1.0,4.1,200.0,4.6,'11111222,11111222,11111222' 
LUMCON,ioos:station:LUMCON:105:1,2006-01-09T01:00:00Z,29.1874,-90.6654,1.0,3.1,190.0,3.6,'11111222,11111222,11111222' 
LUMCON,ioos:station:LUMCON:105:1,2006-01-09T02:00:00Z,29.1874,-90.6654,1.0,1.0,210.0,1.0,'11111222,11111222,11111222' 
LUMCON,ioos:station:LUMCON:105:1,2006-01-09T03:00:00Z,29.1874,-90.6654,1.0,2.6,200.0,3.1,'11111222,11111222,11111222' 
LUMCON,ioos:station:LUMCON:105:1,2006-01-09T04:00:00Z,29.1874,-90.6654,1.0,3.6,200.0,4.1,'11111222,11111222,11111222' 
LUMCON,ioos:station:LUMCON:105:1,2006-01-09T05:00:00Z,29.1874,-90.6654,1.0,3.1,180.0,3.1,'11111222,11111222,11111222' 
LUMCON,ioos:station:LUMCON:105:1,2006-01-09T06:00:00Z,29.1874,-90.6654,1.0,2.6,170.0,3.1,'11111222,11111222,11111222' 
LUMCON,ioos:station:LUMCON:105:1,2006-01-09T07:00:00Z,29.1874,-90.6654,1.0,4.1,180.0,4.6,'11111222,11111222,11111222' 
LUMCON,ioos:station:LUMCON:105:1,2006-01-09T08:00:00Z,29.1874,-90.6654,1.0,3.1,190.0,3.6,'11111222,11111222,11111222' 
LUMCON,ioos:station:LUMCON:105:1,2006-01-09T09:00:00Z,29.1874,-90.6654,1.0,4.1,200.0,4.6,'11111222,11111222,11111222' 
LUMCON,ioos:station:LUMCON:105:1,2006-01-09T10:00:00Z,29.1874,-90.6654,1.0,4.6,210.0,5.1,'11111222,11111222,11111222' 
LUMCON,ioos:station:LUMCON:105:1,2006-01-09T11:00:00Z,29.1874,-90.6654,1.0,3.6,220.0,4.1,'11111222,11111222,11111222' 
LUMCON,ioos:station:LUMCON:105:1,2006-01-09T12:00:00Z,29.1874,-90.6654,1.0,1.0,230.0,2.1,'11111222,11111222,11111222' 
LUMCON,ioos:station:LUMCON:105:1,2006-01-09T13:00:00Z,29.1874,-90.6654,1.0,1.0,150.0,1.5,'11111222,11111222,11111222' 
LUMCON,ioos:station:LUMCON:105:1,2006-01-09T14:00:00Z,29.1874,-90.6654,1.0,1.5,40.0,1.5,'11111222,11111222,11111222' 
LUMCON,ioos:station:LUMCON:105:1,2006-01-09T15:00:00Z,29.1874,-90.6654,1.0,3.1,110.0,3.6,'11111222,11111222,11111222' 
LUMCON,ioos:station:LUMCON:105:1,2006-01-09T16:00:00Z,29.1874,-90.6654,1.0,2.6,80.0,3.6,'11111222,11111222,11111222' 
LUMCON,ioos:station:LUMCON:105:1,2006-01-09T17:00:00Z,29.1874,-90.6654,1.0,2.1,90.0,2.6,'11111222,11111222,11111222' 
LUMCON,ioos:station:LUMCON:105:1,2006-01-09T18:00:00Z,29.1874,-90.6654,1.0,4.1,110.0,5.1,'11111222,11111222,11111222' 
LUMCON,ioos:station:LUMCON:105:1,2006-01-09T19:00:00Z,29.1874,-90.6654,1.0,3.6,120.0,5.7,'11111222,11111222,11111222' 
LUMCON,ioos:station:LUMCON:105:1,2006-01-09T20:00:00Z,29.1874,-90.6654,1.0,3.1,110.0,4.6,'11111222,11111222,11111222' 
LUMCON,ioos:station:LUMCON:105:1,2006-01-09T21:00:00Z,29.1874,-90.6654,1.0,3.1,120.0,4.1,'11111222,11111222,11111222' 
LUMCON,ioos:station:LUMCON:105:1,2006-01-09T22:00:00Z,29.1874,-90.6654,1.0,4.1,110.0,5.1,'11111222,11111222,11111222' 
LUMCON,ioos:station:LUMCON:105:1,2006-01-09T23:00:00Z,29.1874,-90.6654,1.0,4.1,110.0,5.1,'11111222,11111222,11111222' 
LUMCON,ioos:station:LUMCON:105:1,2006-01-10T00:00:00Z,29.1874,-90.6654,1.0,3.1,110.0,4.1,'11111222,11111222,11111222' 
LUMCON,ioos:station:LUMCON:105:1,2006-01-10T01:00:00Z,29.1874,-90.6654,1.0,4.1,110.0,4.6,'11111222,11111222,11111222' 
LUMCON,ioos:station:LUMCON:105:1,2006-01-10T02:00:00Z,29.1874,-90.6654,1.0,3.1,110.0,4.6,'11111222,11111222,11111222' 
LUMCON,ioos:station:LUMCON:105:1,2006-01-10T03:00:00Z,29.1874,-90.6654,1.0,5.7,140.0,7.2,'11111222,11111222,11111222' 
LUMCON,ioos:station:LUMCON:105:1,2006-01-10T04:00:00Z,29.1874,-90.6654,1.0,5.1,130.0,9.8,'11111222,11111222,11111222' 
LUMCON,ioos:station:LUMCON:105:1,2006-01-10T05:00:00Z,29.1874,-90.6654,1.0,2.6,130.0,3.1,'11111222,11111222,11111222' 
LUMCON,ioos:station:LUMCON:105:1,2006-01-10T06:00:00Z,29.1874,-90.6654,1.0,2.6,170.0,4.6,'11111222,11111222,11111222' 
LUMCON,ioos:station:LUMCON:105:1,2006-01-10T07:00:00Z,29.1874,-90.6654,1.0,5.1,130.0,6.7,'11111222,11111222,11111222' 
LUMCON,ioos:station:LUMCON:105:1,2006-01-10T08:00:00Z,29.1874,-90.6654,1.0,3.1,130.0,5.7,'11111222,11111222,11111222' 
LUMCON,ioos:station:LUMCON:105:1,2006-01-10T09:00:00Z,29.1874,-90.6654,1.0,1.5,90.0,2.6,'11111222,11111222,11111222' 
LUMCON,ioos:station:LUMCON:105:1,2006-01-10T10:00:00Z,29.1874,-90.6654,1.0,2.1,10.0,3.1,'11111222,11111222,11111222' 
LUMCON,ioos:station:LUMCON:105:1,2006-01-10T11:00:00Z,29.1874,-90.6654,1.0,3.1,340.0,4.6,'11111222,11111222,11111222' 
LUMCON,ioos:station:LUMCON:105:1,2006-01-10T12:00:00Z,29.1874,-90.6654,1.0,3.6,20.0,5.1,'11111222,11111222,11111222' 
LUMCON,ioos:station:LUMCON:105:1,2006-01-10T13:00:00Z,29.1874,-90.6654,1.0,3.1,10.0,4.1,'11111222,11111222,11111222' 